Location: La Sioule Rivi�re
(46.3664°N, 3.3197°E)
Time: 12:38:00
(UTC+00:00)

USA 305 - Pass Details

Date: 29 October 2020
Orbit: 569 x 577 km, 54.0° (Epoch: 22 November)

Event Time Altitude Azimuth Distance (km) Brightness Sun altitude
Rises 17:49:00 0° 302° (WNW) 2,788 7.3 -13.1°
Reaches altitude 10° 17:51:16 10° 305° (NW) 1,886 6.3 -13.5°
Maximum altitude 17:55:33 69° 29° (NNE) 617 2.9 -14.2°
Enters shadow 17:58:08 23° 108° (ESE) 1,240 4.1 -14.7°
